Location: Newark
(25.6108°S, 54.5803°W)
Time: 12:39:31
(UTC+00:00)

Courier 1B Rocket - Pass Details

Date: 04 November 2020
Orbit: 920 x 1202 km, 28.2° (Epoch: 01 December)

Event Time Altitude Azimuth Distance (km) Brightness Sun altitude
Rises 04:16:45 0° 326° (NW) 4,062 - -46.8°
Reaches altitude 10° 04:20:10 10° 339° (NNW) 3,118 - -46.5°
Maximum altitude 04:26:14 25° 30° (NNE) 2,215 - -46.0°
Drops below altitude 10° 04:32:16 10° 81° (E) 3,109 - -45.5°
Exits shadow 04:33:05 - 85° (E) 3,323 7.9 -45.4°
Sets 04:35:39 0° 94° (E) 4,048 8.5 -45.1°
